CZ-3B R/B (46611 NORAD) Tracking and Keplerian Element Data

This shows tracking and keplerian element data for the satellite.

Feedback or suggestion? Click here.




ElementValue
Catalog46611
NameCZ-3B R/B
Epoch Orbit33
Epoch Day299.68793293
Epoch Year2020
RAAN266.7977
Inclination28.4627
Eccentricity0.723397
Argument of Perigee187.8442
Mean Anonmoly147.027
Mean Motion2.40175634
Decay Rate0.00027363
L11 46611U 20071B 20299.68793293 .00027363 -49293-6 10000-3 0 9996
L22 46611 28.4627 266.7977 7233970 187.8442 147.0270 2.40175634 337

Live tracking and technical data element details for CZ-3B R/B (NORAD 46611). CZ-3B R/B can be tracked NOW for your location showing map with azimuth and elevation plus other details from your city location.

Track the satellite on the map from your city or location and see movement details for azimuth, elevation, latitude, longitude, range, height, and movement on the map or in text.







IsCatalogInMostPopularTable: catalog: 46611, numindb: 2
Update: records affected: 1



GetName: 46611 CZ-3B R/B

Hit Count: updated at: Fri, 30 Oct 2020 01:24:15 GMT